Flag for U.S.A. Weather past 2 weeks in Evansville, Indiana, U.S.A.

Now
81 °F

Passing clouds.


Feels Like: 85 °F
Forecast: 77 / 92 °F
Wind: 9 mph from West

Location: Evansville Regional Airport

Current Time: Jul 27, 2015 at 11:22:17 PM

Latest Report: Jul 27, 2015 at 9:54 PM


Visibility: 10 mi

Pressure: 29.97 "Hg

Humidity: 74%

Dew point: 72 °F

Location of EvansvilleLocation

Historic Weather in Evansville — Graph

°F

Evansville temperature yesterday

Maximum temperature yesterday: 86 °F (at 2:54 PM)
Minimum temperature yesterday: 74 °F (at 1:54 AM)
Average temperature yesterday: 80 °F

Past Weeks' High & Low Weather Summary

 TemperatureHumidityPressure
High94 °F (Jul 18, 1:54 PM)96% (Jul 21, 1:54 AM)30.04 "Hg (Jul 21, 1:54 AM)
Low65 °F (Jul 22, 5:54 AM)42% (Jul 24, 2:54 PM)29.63 "Hg (Jul 14, 4:54 PM)
Average80 °F72%29.90 "Hg
* Reported Jul 12 9:54 PM — Jul 27 9:54 PM, Evansville, Weather by CustomWeather, © 2015

Note: Actual official high and low records may vary slightly from our data, if they occured in-between our weather recording intervals... More about our weather records

Advertising

Evansville weather history for previous 24 hours

 ConditionsComfort  
Time TempWeatherWind HumidityBarometerVisibility
9:54 PM
Mon, Jul 27
81 °FPassing clouds.9 mph74%29.97 "Hg10 mi
8:54 PM82 °FClear.No wind77%29.93 "Hg10 mi
7:54 PM85 °FScattered clouds.3 mph72%29.92 "Hg8 mi
6:54 PM87 °FPassing clouds.3 mph67%29.89 "Hg8 mi
5:54 PM89 °FSunny.6 mph63%29.89 "Hg9 mi
3:54 PM88 °FPassing clouds.5 mph65%29.91 "Hg8 mi
2:54 PM89 °FPartly sunny.No wind63%29.93 "Hg8 mi
1:54 PM87 °FBroken clouds.No wind65%29.94 "Hg8 mi
12:54 PM86 °FPassing clouds.No wind67%29.95 "Hg9 mi
11:54 AM84 °FPartly sunny.No wind72%29.97 "Hg7 mi
11:01 AM82 °FPartly sunny.5 mph79%29.99 "Hg7 mi
9:54 AM80 °FPartly sunny.8 mph81%29.99 "Hg5 mi
8:54 AM78 °FFog.5 mph90%29.98 "Hg3 mi
8:04 AM76 °FFog.No wind94%29.97 "Hg2 mi
7:54 AM75 °FFog.No wind96%29.96 "Hg2 mi
6:54 AM75 °FFog.3 mph94%29.96 "Hg2 mi
6:03 AM76 °FThundershowers. Fog.3 mph94%29.98 "Hg2 mi
5:54 AM75 °FHeavy rain. Fog.7 mph94%29.96 "Hg1 mi
4:54 AM75 °FFog.3 mph90%29.93 "Hg6 mi
3:54 AM75 °FFog.3 mph90%29.93 "Hg6 mi
2:54 AM75 °FFog.3 mph94%29.92 "Hg5 mi
1:54 AM75 °FFog.No wind94%29.93 "Hg6 mi
12:54 AM75 °FMostly cloudy.6 mph90%29.94 "Hg8 mi
11:54 PM
Sun, Jul 26
76 °FRain. Fog.5 mph91%29.93 "Hg3 mi
Weather by CustomWeather, © 2015

See weather overviewHow to use our weather pages